Change the Weather History Date:

Saturday, November 10, 2012

  Actual Average Record
Temperature  
Mean Temperature 72 °F -  
Max Temperature 77 °F - - ()
Min Temperature 67 °F - - ()
Cooling Degree Days 7    
Growing Degree Days 22 (Base 50)    
Moisture  
Dew Point 64 °F    
Average Humidity 77    
Maximum Humidity 97    
Minimum Humidity 48    
Precipitation  
Precipitation 0.04 in - - ()
Sea Level Pressure  
Sea Level Pressure 29.96 in    
Wind  
Wind Speed 4 mph ()    
Max Wind Speed 10 mph    
Max Gust Speed -    
Visibility 12.0 miles    
Events Rain    
T = Trace of Precipitation, MM = Missing Value Source: Averaged Metar Reports

Daily Weather History Graph

Daily Weather History Graph

Search for Another Location

Airport or City:

Trip Planner

Search our weather history database for the weather conditions in past years. The results will help you decide how hot, cold, wet, or windy it might be!

Date:

Astronomy

Nov. 10, 2012 Rise Set
Actual Time 6:22 AM FJST 7:16 PM FJST
Civil Twilight 5:59 AM FJST 7:39 PM FJST
Nautical Twilight 5:32 AM FJST 8:06 PM FJST
Astronomical Twilight 5:05 AM FJST 8:34 PM FJST
Moon 3:00 AM FJST (11/10) 3:27 PM FJST (11/10)
Length of Visible Light 13h 39m
Length of Day
12h 53m
Waning Crescent, 21% of the Moon is Illuminated
Nov 10
Waning Crescent
Nov 14
New
Nov 21
First Quarter
Nov 29
Full
Dec 7
Last Quarter

Hourly Weather History & Observations

Time (FJST) Temp. Dew Point Humidity Pressure Visibility Wind Dir Wind Speed Gust Speed Precip Events Conditions
12:00 AM 68.0 °F 66.2 °F 94% 29.98 in 24.9 mi South 2.3 mph - N/A   Mostly Cloudy
1:00 AM 68 °F 66 °F 93% 29.97 in 12 mi WSW 5.8 mph - -  
1:00 AM 68.0 °F 66.2 °F 94% 29.95 in 24.9 mi WSW 5.8 mph - N/A   Mostly Cloudy
2:00 AM 68.0 °F 66.2 °F 94% 29.95 in 24.9 mi Calm Calm - N/A   Scattered Clouds
3:00 AM 68.0 °F 66.2 °F 94% 29.92 in 24.9 mi Calm Calm - N/A   Scattered Clouds
4:00 AM 67 °F 66 °F 97% 29.93 in 12 mi Calm Calm - -   Partly Cloudy
4:00 AM 68.0 °F 66.2 °F 94% 29.92 in 24.9 mi Calm Calm - N/A   Scattered Clouds
5:00 AM 68.0 °F 66.2 °F 94% 29.92 in 24.9 mi Calm Calm - N/A   Scattered Clouds
6:00 AM 68.0 °F 66.2 °F 94% 29.95 in 24.9 mi Calm Calm - N/A   Scattered Clouds
7:00 AM 67 °F 66 °F 97% 29.97 in 31 mi SE 6.9 mph - -   Partly Cloudy
7:00 AM 68.0 °F 66.2 °F 94% 29.95 in 31.1 mi SE 6.9 mph - N/A   Scattered Clouds
8:00 AM 69.8 °F 64.4 °F 83% 29.98 in 24.9 mi SE 9.2 mph - N/A   Mostly Cloudy
9:00 AM 69.8 °F 64.4 °F 83% 30.01 in 24.9 mi ESE 6.9 mph - N/A   Mostly Cloudy
10:00 AM 73 °F 64 °F 66% 30.02 in 12 mi SE 6.9 mph - -   Partly Cloudy
10:00 AM 73.4 °F 64.4 °F 73% 30.01 in 24.9 mi SE 6.9 mph - N/A   Mostly Cloudy
11:00 AM 73.4 °F 64.4 °F 73% 30.01 in 24.9 mi ESE 5.8 mph - N/A   Mostly Cloudy
12:00 PM 73.4 °F 64.4 °F 73% 29.98 in 24.9 mi ESE 5.8 mph - N/A   Mostly Cloudy
1:00 PM 76 °F 60 °F 48% 29.98 in 31 mi SE 9.2 mph - -   Partly Cloudy
1:00 PM 75.2 °F 60.8 °F 61% 29.98 in 31.1 mi SE 9.2 mph - N/A   Mostly Cloudy
2:00 PM 77.0 °F 60.8 °F 57% 29.95 in 31.1 mi SE 9.2 mph - N/A   Mostly Cloudy
3:00 PM 77.0 °F 62.6 °F 61% 29.95 in 31.1 mi ESE 10.4 mph - N/A   Mostly Cloudy
4:00 PM 76 °F 62 °F 53% 29.93 in 31 mi ESE 6.9 mph - -   Partly Cloudy
4:00 PM 75.2 °F 62.6 °F 65% 29.92 in 31.1 mi ESE 6.9 mph - N/A   Mostly Cloudy
5:00 PM 75.2 °F 62.6 °F 65% 29.92 in 31.1 mi ESE 8.1 mph - N/A   Mostly Cloudy
6:00 PM 71.6 °F 64.4 °F 78% 29.95 in 31.1 mi South 8.1 mph - N/A Rain Light Rain Showers
7:00 PM 73 °F 64 °F 66% 29.97 in 31 mi SE 6.9 mph - - Rain Light Rain Showers
7:00 PM 71.6 °F 64.4 °F 78% 29.95 in 31.1 mi SE 6.9 mph - N/A Rain Light Rain Showers
8:00 PM 71.6 °F 62.6 °F 73% 29.98 in 24.9 mi East 3.5 mph - N/A   Mostly Cloudy
9:00 PM 73.4 °F 62.6 °F 69% 29.98 in 24.9 mi East 3.5 mph - N/A   Mostly Cloudy
10:00 PM 73 °F 63 °F 62% 30.00 in 12 mi Calm Calm - -   Partly Cloudy
10:00 PM 73.4 °F 62.6 °F 69% 29.98 in 24.9 mi Calm Calm - N/A   Mostly Cloudy
11:00 PM 73.4 °F 64.4 °F 73% 30.01 in 24.9 mi Calm Calm - N/A   Mostly Cloudy